This is the latest recevied weather packets stored in our database for station/object KL1SF-7. If no packets are shown the sender has not sent any weather packets the latest 10 day(s).
| Time | Temp. | Humidity | Pressure | Rain* | Wind** | Luminosity | Snow |
|---|---|---|---|---|---|---|---|
| 1777317815 | 11.67° C | 22% | 1013.2 hPa | 0 mm | - | - | - |
| 1777317205 | 12.22° C | 25% | 1013.2 hPa | 0 mm | - | - | - |
| 1777316620 | 11.67° C | 26% | 1013.5 hPa | 0 mm | - | - | - |
| 1777316001 | 11.67° C | 28% | 1013.5 hPa | 0 mm | - | - | - |
| 1777315411 | 11.67° C | 27% | 1013.5 hPa | 0 mm | - | - | - |
| 1777314824 | 11.67° C | 29% | 1013.5 hPa | 0 mm | - | - | - |
| 1777314205 | 11.11° C | 34% | 1013.6 hPa | 0 mm | - | - | - |
| 1777313615 | 11.67° C | 32% | 1013.6 hPa | 0 mm | - | - | - |
| 1777313013 | 11.67° C | 32% | 1013.5 hPa | 0 mm | - | - | - |
| 1777312412 | 11.11° C | 35% | 1013.8 hPa | 0 mm | - | - | - |
| 1777311817 | 11.11° C | 36% | 1013.8 hPa | 0 mm | - | - | - |
| 1777311228 | 10.56° C | 36% | 1013.9 hPa | 0 mm | - | - | - |
| 1777310603 | 10.56° C | 36% | 1013.9 hPa | 0 mm | - | - | - |
| 1777310007 | 10.56° C | 37% | 1013.9 hPa | 0 mm | - | - | - |
| 1777309412 | 10° C | 40% | 1013.9 hPa | 0 mm | - | - | - |
| 1777308810 | 10° C | 38% | 1013.9 hPa | 0 mm | - | - | - |
| 1777308213 | 10° C | 41% | 1013.9 hPa | 0 mm | - | - | - |
| 1777307622 | 9.44° C | 45% | 1013.6 hPa | 0 mm | - | - | - |
| 1777307017 | 8.33° C | 46% | 1014 hPa | 0 mm | - | - | - |
| 1777306420 | 7.78° C | 49% | 1014 hPa | 0 mm | - | - | - |
| 1777305811 | 8.33° C | 48% | 1014 hPa | 0 mm | - | - | - |
| 1777305207 | 7.78° C | 49% | 1013.5 hPa | 0 mm | - | - | - |
| 1777304612 | 6.67° C | 55% | 1013.5 hPa | 0 mm | - | - | - |
| 1777304021 | 6.11° C | 55% | 1013.7 hPa | 0 mm | - | - | - |
| 1777303420 | 6.67° C | 56% | 1013.6 hPa | 0 mm | - | - | - |
* Rain since midnight (hover to see other rain measurements)
** Current wind speed in m/s (hover to see current wind gust speed)